Weather History for Plattsburgh, NY

Change the Weather History Date:

Friday, May 24, 2013

  Actual Average Record
Temperature  
Mean Temperature 52 °F 59 °F  
Max Temperature 59 °F 70 °F 92 °F (1964)
Min Temperature 45 °F 47 °F 30 °F (1956)
Degree Days  
Heating Degree Days 12    
Cooling Degree Days 0 1  
Month to date cooling degree days 4 1  
Year to date cooling degree days 4 1  
Growing Degree Days 2 (Base 50)    
Moisture  
Dew Point 45 °F    
Average Humidity 93    
Maximum Humidity 100    
Minimum Humidity 86    
Precipitation  
Precipitation 1.39 in - 1.39 in (2013)
Month to date precipitation 3.82  
Year to date precipitation 7.78  
Sea Level Pressure  
Sea Level Pressure 29.91 in    
Wind  
Wind Speed 13 mph (NNW)    
Max Wind Speed 22 mph    
Max Gust Speed 26 mph    
Visibility 8 miles    
Events Rain    
T = Trace of Precipitation, MM = Missing Value Source: NWS Daily Summary

Daily Weather History Graph

Daily Weather History Graph

Search for Another Location

Airport:

Trip Planner

Search our weather history database for the weather conditions in past years. The results will help you decide how hot, cold, wet, or windy it might be!

Date:

Astronomy

May. 24, 2013 Rise Set
Actual Time 5:16 AM EDT 8:25 PM EDT
Civil Twilight 4:41 AM EDT 9:00 PM EDT
Nautical Twilight 3:56 AM EDT 9:45 PM EDT
Astronomical Twilight 3:02 AM EDT 10:40 PM EDT
Moon 8:02 PM EDT (5/24) 4:49 AM EDT (5/24)
Length of Visible Light 16h 18m
Length of Day
15h 08m
Full, 100% of the Moon is Illuminated
May 24
Full
May 25
Full
May 31
Last Quarter
Jun 8
New
Jun 16
First Quarter

Hourly Weather History & Observations

Time (EDT) Temp. Windchill Dew Point Humidity Pressure Visibility Wind Dir Wind Speed Gust Speed Precip Events Conditions
12:50 AM 60.8 °F - 57.2 °F 88% 29.73 in 10.0 mi NNE 11.5 mph - 0.00 in Rain Light Rain
12:53 AM 60.1 °F - 57.9 °F 93% 29.73 in 10.0 mi NNE 10.4 mph - 0.00 in Rain Light Rain
1:53 AM 55.9 °F - 55.0 °F 97% 29.73 in 7.0 mi North 12.7 mph - 0.05 in Rain Light Rain
2:53 AM 54.0 °F - 53.1 °F 97% 29.74 in 6.0 mi North 9.2 mph - 0.13 in Rain Light Rain
3:18 AM 53.6 °F - 51.8 °F 94% 29.74 in 5.0 mi North 13.8 mph - 0.05 in Rain Rain
3:53 AM 51.1 °F - 48.9 °F 92% 29.76 in 4.0 mi North 13.8 mph 20.7 mph 0.18 in Rain Heavy Rain
4:53 AM 50.0 °F - 48.0 °F 93% 29.78 in 4.0 mi NNW 13.8 mph 20.7 mph 0.08 in Rain Light Rain
5:04 AM 50.0 °F - 48.2 °F 94% 29.78 in 4.0 mi NNW 15.0 mph 21.9 mph 0.03 in Rain Rain
5:27 AM 48.2 °F - 46.4 °F 93% 29.77 in 5.0 mi North 16.1 mph - 0.07 in Rain Light Rain
5:53 AM 48.9 °F - 46.9 °F 93% 29.79 in 6.0 mi NNW 11.5 mph - 0.08 in Rain Light Rain
6:07 AM 48.2 °F - 46.4 °F 93% 29.80 in 7.0 mi North 13.8 mph 23.0 mph 0.01 in Rain Light Rain
6:18 AM 48.2 °F - 46.4 °F 93% 29.80 in 7.0 mi NNW 13.8 mph - 0.01 in Rain Light Rain
6:53 AM 48.0 °F - 46.0 °F 93% 29.81 in 9.0 mi North 17.3 mph 21.9 mph 0.02 in Rain Light Rain
7:53 AM 46.9 °F - 44.1 °F 90% 29.85 in 4.0 mi NNW 18.4 mph 25.3 mph 0.02 in Rain Light Rain
8:21 AM 46.4 °F 40.1 °F 44.6 °F 93% 29.86 in 3.0 mi NNW 15.0 mph - 0.04 in Rain Rain
8:40 AM 46.4 °F 40.1 °F 44.6 °F 93% 29.86 in 6.0 mi NNW 15.0 mph - 0.07 in Rain Light Rain
8:53 AM 46.0 °F 39.6 °F 44.1 °F 93% 29.88 in 5.0 mi NNW 15.0 mph 23.0 mph 0.10 in Rain Rain
9:53 AM 46.0 °F 39.6 °F 43.0 °F 89% 29.91 in 6.0 mi NNW 15.0 mph - 0.11 in Rain Rain
10:44 AM 46.4 °F 40.4 °F 44.6 °F 93% 29.92 in 10.0 mi North 13.8 mph - 0.05 in Rain Light Rain
10:53 AM 46.9 °F - 44.1 °F 90% 29.93 in 10.0 mi North 15.0 mph - 0.05 in Rain Light Rain
11:04 AM 46.4 °F 41.1 °F 44.6 °F 93% 29.93 in 10.0 mi NNW 11.5 mph - 0.01 in Rain Light Rain
11:44 AM 46.4 °F 39.5 °F 44.6 °F 93% 29.94 in 10.0 mi North 17.3 mph 23.0 mph 0.02 in Rain Light Rain
11:53 AM 46.9 °F - 44.1 °F 90% 29.94 in 10.0 mi North 16.1 mph 23.0 mph 0.02 in Rain Light Rain
12:02 PM 46.4 °F 40.1 °F 44.6 °F 93% 29.94 in 10.0 mi North 15.0 mph 24.2 mph 0.00 in Rain Light Rain
12:38 PM 46.4 °F 40.4 °F 44.6 °F 93% 29.95 in 8.0 mi North 13.8 mph 23.0 mph 0.00 in   Overcast
12:53 PM 46.9 °F - 43.0 °F 86% 29.96 in 10.0 mi NNW 13.8 mph - 0.00 in Rain Light Rain
1:14 PM 46.4 °F 39.5 °F 42.8 °F 87% 29.97 in 9.0 mi NNW 17.3 mph 23.0 mph 0.00 in Rain Light Rain
1:53 PM 46.0 °F 38.0 °F 43.0 °F 89% 29.98 in 8.0 mi North 21.9 mph 26.5 mph 0.00 in Rain Light Rain
2:12 PM 46.4 °F 40.4 °F 44.6 °F 93% 29.98 in 6.0 mi North 13.8 mph 24.2 mph 0.02 in Rain Rain
2:25 PM 46.4 °F 39.5 °F 42.8 °F 87% 29.99 in 3.0 mi North 17.3 mph 24.2 mph 0.03 in Rain Light Rain
2:50 PM 46.4 °F 40.1 °F 42.8 °F 87% 29.99 in 10.0 mi North 15.0 mph - 0.03 in   Overcast
2:53 PM 46.9 °F - 43.0 °F 86% 30.00 in 10.0 mi NNW 15.0 mph - 0.03 in   Overcast
3:53 PM 46.9 °F - 41.0 °F 80% 30.01 in 10.0 mi NNW 13.8 mph - 0.00 in Rain Light Rain
4:22 PM 46.4 °F 39.8 °F 41.0 °F 81% 30.00 in 10.0 mi NNW 16.1 mph 23.0 mph 0.00 in Rain Light Rain
4:53 PM 46.0 °F 39.6 °F 42.1 °F 86% 30.02 in 10.0 mi NNW 15.0 mph 21.9 mph 0.00 in Rain Light Rain
5:53 PM 46.0 °F 39.0 °F 42.1 °F 86% 30.03 in 10.0 mi NNW 17.3 mph 23.0 mph 0.05 in Rain Light Rain
6:53 PM 46.0 °F 41.0 °F 42.1 °F 86% 30.04 in 7.0 mi NNW 10.4 mph - 0.03 in Rain Light Rain
7:53 PM 46.0 °F 42.5 °F 42.1 °F 86% 30.04 in 8.0 mi NW 6.9 mph 16.1 mph 0.04 in Rain Light Rain
8:53 PM 45.0 °F 41.2 °F 42.1 °F 90% 30.05 in 10.0 mi WNW 6.9 mph - 0.06 in Rain Light Rain
9:53 PM 46.0 °F 41.9 °F 43.0 °F 89% 30.05 in 8.0 mi NW 8.1 mph - 0.07 in Rain Light Rain
10:53 PM 46.0 °F 43.1 °F 43.0 °F 89% 30.06 in 9.0 mi NNW 5.8 mph - 0.06 in Rain Light Rain
11:53 PM 45.0 °F 41.8 °F 43.0 °F 93% 30.06 in 7.0 mi NW 5.8 mph - 0.09 in Rain Rain